Eastsound, WA
on Wednesday, February 6, 2013

Wednesday
Previous Day Next Day
Daily Summary
 ActualAverage (KBLI)Record (KBLI)
Temperature
Mean Temperature °F 40°F  
Max Temperature 50°F 48°F 62°F (1963)
Min Temperature 42°F 33°F 20°F (1989)
Degree Days
Heating Degree Days 19 25  
Month to date heating degree days 150  
Cooling Degree Days 0 0  
Month to date cooling degree days 0  
Year to date cooling degree days 0  
Moisture
Dew Point 39°F   
Average Humidity 80    
Maximum Humidity 93    
Minimum Humidity 58    
Precipitation
Precipitation 0.00 in 0.12 in 0.64 in (1961)
Month to date precipitation 0.70  
Year to date precipitation 5.37  
Wind
Wind Speed 8 mph   
Max Wind Speed 16 mph   
Max Gust Speed 29 mph   
Visibility 10 miles   
Events Rain   

Key: T is trace of precipitation, MM is missing value
Source: NWS Daily Summary
Time(PST)TemperatureDew PointHumidity Pressure Visibility Wind DirectionWind SpeedGust SpeedPrecipitationEvents Conditions
12:15 AM 42.8°F 41.0°F 93% 29.88 in 10.0 miles SSW 8.1 mph - N/A   Mostly Cloudy
12:35 AM 44.6°F 41.0°F 87% 29.88 in 10.0 miles SSW 11.5 mph 16.1 mph N/A   Mostly Cloudy
1:15 AM 44.6°F 41.0°F 87% 29.89 in 10.0 miles South 8.1 mph - N/A   Scattered Clouds
1:35 AM 42.8°F 41.0°F 93% 29.90 in 10.0 miles SSW 10.4 mph - N/A   Mostly Cloudy
2:15 AM 42.8°F 41.0°F 93% 29.90 in 10.0 miles South 9.2 mph - N/A   Mostly Cloudy
2:35 AM 44.6°F 41.0°F 87% 29.91 in 10.0 miles SSW 5.8 mph - N/A Rain Light Rain
2:55 AM 44.6°F 41.0°F 87% 29.91 in 10.0 miles SSW 10.4 mph - N/A   Mostly Cloudy
3:15 AM 42.8°F 41.0°F 93% 29.92 in 10.0 miles SSW 8.1 mph - N/A   Scattered Clouds
3:35 AM 42.8°F 41.0°F 93% 29.92 in 8.0 miles SSW 6.9 mph - N/A Rain Light Rain
3:55 AM 42.8°F 41.0°F 93% 29.93 in 10.0 miles South 3.5 mph - N/A   Mostly Cloudy
4:15 AM 42.8°F 41.0°F 93% 29.93 in 10.0 miles SSW 9.2 mph - N/A   Mostly Cloudy
4:35 AM 42.8°F 41.0°F 93% 29.94 in 10.0 miles SSW 5.8 mph - N/A   Scattered Clouds
4:55 AM 42.8°F 41.0°F 93% 29.94 in 10.0 miles South 3.5 mph - N/A   Partly Cloudy
5:15 AM 42.8°F 41.0°F 93% 29.95 in 10.0 miles South 5.8 mph - N/A   Partly Cloudy
5:35 AM 42.8°F 41.0°F 93% 29.95 in 10.0 miles SSW 8.1 mph - N/A Rain Light Rain
5:55 AM 42.8°F 41.0°F 93% 29.95 in 10.0 miles South 6.9 mph - N/A   Scattered Clouds
6:15 AM 42.8°F 41.0°F 93% 29.96 in 10.0 miles SSW 8.1 mph - N/A   Mostly Cloudy
6:35 AM 42.8°F 41.0°F 93% 29.96 in 10.0 miles SSW 5.8 mph - N/A Rain Light Rain
6:55 AM 42.8°F 41.0°F 93% 29.96 in 10.0 miles South 4.6 mph - N/A   Mostly Cloudy
7:35 AM 42.8°F 39.2°F 87% 29.96 in 10.0 miles South 5.8 mph - N/A   Clear
7:55 AM 42.8°F 39.2°F 87% 29.96 in 10.0 miles South 9.2 mph - N/A   Partly Cloudy
8:15 AM 42.8°F 39.2°F 87% 29.96 in 10.0 miles South 8.1 mph - N/A   Clear
8:35 AM 44.6°F 39.2°F 81% 29.97 in 10.0 miles South 8.1 mph - N/A   Partly Cloudy
9:15 AM 44.6°F 39.2°F 81% 29.97 in 10.0 miles South 5.8 mph - N/A   Mostly Cloudy
9:35 AM 44.6°F 39.2°F 81% 29.97 in 10.0 miles Calm Calm - N/A   Overcast
9:55 AM 44.6°F 39.2°F 81% 29.97 in 10.0 miles South 5.8 mph - N/A   Overcast
10:15 AM 44.6°F 39.2°F 81% 29.97 in 10.0 miles South 8.1 mph - N/A   Overcast
10:35 AM 44.6°F 39.2°F 81% 29.96 in 10.0 miles South 9.2 mph 17.3 mph N/A   Overcast
10:55 AM 46.4°F 39.2°F 76% 29.96 in 10.0 miles South 6.9 mph - N/A   Overcast
11:15 AM 46.4°F 39.2°F 76% 29.96 in 10.0 miles South 9.2 mph 18.4 mph N/A   Mostly Cloudy
11:55 AM 46.4°F 39.2°F 76% 29.94 in 10.0 miles South 10.4 mph 17.3 mph N/A   Mostly Cloudy
12:15 PM 46.4°F 39.2°F 76% 29.94 in 10.0 miles South 9.2 mph 19.6 mph N/A   Mostly Cloudy
12:35 PM 46.4°F 39.2°F 76% 29.93 in 10.0 miles South 12.7 mph 21.9 mph N/A   Mostly Cloudy
12:55 PM 46.4°F 39.2°F 76% 29.92 in 10.0 miles South 11.5 mph 19.6 mph N/A   Mostly Cloudy
1:15 PM 46.4°F 39.2°F 76% 29.92 in 10.0 miles South 10.4 mph 20.7 mph N/A   Scattered Clouds
1:35 PM 46.4°F 39.2°F 76% 29.91 in 10.0 miles South 9.2 mph 17.3 mph N/A   Clear
1:55 PM 46.4°F 39.2°F 76% 29.91 in 10.0 miles South 8.1 mph - N/A   Partly Cloudy
2:15 PM 46.4°F 39.2°F 76% 29.91 in 10.0 miles South 8.1 mph - N/A Rain Light Rain
2:35 PM 46.4°F 39.2°F 76% 29.90 in 10.0 miles SSE 8.1 mph 17.3 mph N/A Rain Light Rain
2:55 PM 46.4°F 39.2°F 76% 29.90 in 10.0 miles SSE 9.2 mph - N/A   Mostly Cloudy
3:15 PM 46.4°F 39.2°F 76% 29.91 in 6.0 miles SSE 6.9 mph - N/A Rain Light Rain
3:35 PM 44.6°F 39.2°F 81% 29.90 in 5.0 miles SSE 6.9 mph - N/A Rain Light Rain
3:55 PM 44.6°F 39.2°F 81% 29.89 in 5.0 miles SSE 6.9 mph - N/A Rain Light Rain
4:15 PM 46.4°F 39.2°F 76% 29.89 in 5.0 miles SSE 8.1 mph - N/A Rain Light Rain
4:35 PM 46.4°F 39.2°F 76% 29.88 in 9.0 miles SSE 8.1 mph - N/A Rain Light Rain
5:15 PM 46.4°F 39.2°F 76% 29.87 in 9.0 miles SE 4.6 mph - N/A Rain Light Rain
5:55 PM 46.4°F 39.2°F 76% 29.86 in 10.0 miles SE 10.4 mph 23.0 mph N/A   Overcast
6:15 PM 46.4°F 39.2°F 76% 29.85 in 10.0 miles SE 9.2 mph 18.4 mph N/A   Overcast
6:35 PM 46.4°F 39.2°F 76% 29.84 in 10.0 miles SSE 12.7 mph 24.2 mph N/A   Mostly Cloudy
6:55 PM 46.4°F 39.2°F 76% 29.83 in 10.0 miles SSE 11.5 mph 19.6 mph N/A   Scattered Clouds
7:15 PM 46.4°F 39.2°F 76% 29.82 in 10.0 miles SSE 11.5 mph 20.7 mph N/A   Mostly Cloudy
7:35 PM 46.4°F 37.4°F 71% 29.81 in 10.0 miles SSE 9.2 mph 17.3 mph N/A   Mostly Cloudy
7:55 PM 46.4°F 37.4°F 71% 29.79 in 10.0 miles SSE 12.7 mph 25.3 mph N/A   Mostly Cloudy
8:15 PM 46.4°F 37.4°F 71% 29.79 in 10.0 miles SSE 13.8 mph 25.3 mph N/A   Partly Cloudy
8:55 PM 46.4°F 37.4°F 71% 29.77 in 10.0 miles SSE 9.2 mph 24.2 mph N/A   Clear
9:15 PM 46.4°F 37.4°F 71% 29.75 in 10.0 miles SSE 8.1 mph 27.6 mph N/A   Clear
9:35 PM 48.2°F 37.4°F 66% 29.75 in 10.0 miles SE 11.5 mph 26.5 mph N/A   Clear
9:55 PM 48.2°F 35.6°F 62% 29.74 in 10.0 miles SSE 11.5 mph 28.8 mph N/A   Clear
10:15 PM 48.2°F 35.6°F 62% 29.74 in 10.0 miles SE 11.5 mph 26.5 mph N/A   Clear
10:35 PM 48.2°F 35.6°F 62% 29.73 in 10.0 miles SE 12.7 mph 19.6 mph N/A   Clear
10:55 PM 48.2°F 35.6°F 62% 29.72 in 10.0 miles SE 6.9 mph 21.9 mph N/A   Clear
11:15 PM 50.0°F 35.6°F 58% 29.72 in 10.0 miles SSE 16.1 mph 24.2 mph N/A   Clear
11:35 PM 48.2°F 35.6°F 62% 29.72 in 10.0 miles SSE 10.4 mph 25.3 mph N/A   Clear
11:55 PM 48.2°F 35.6°F 62% 29.72 in 10.0 miles SSE 11.5 mph 20.7 mph N/A   Clear
Moon Phase
Feb. 06 Feb. 10 Feb. 17 Feb. 25 Mar. 04
Sunrise:07:33 AM (PST) Moon Rise:04:32 AM (PST)2/6
Sunset:05:18 PM (PST) Moon Set:01:33 PM (PST)2/6

Copyright © 2014 The Weather Underground, Inc.